This demonstration page uses our WeatherBlox Daily Observations layout. Learn more.

Left ArrowRight Arrow

Hourly Observations for March 17, 2016

Temp ( °F °C ) Dew Point ( °F °C ) Humidity (%) Winds ( mph kmh ) Pressure ( in mb ) Visibility ( mi km ) Precip ( " mm )
12:53 am 00:53 Mostly Cloudy 55 12.8 36 2.2 49 49 SW 7 11 29.93 1014 10 16 N/A
1:53 am 01:53 Mostly Clear 53 11.7 35 1.7 51 51 WSW 7 11 29.92 1013 10 16 N/A
2:53 am 02:53 Cloudy 55 12.8 33 0.6 44 44 W 8 13 29.92 1013 10 16 N/A
3:53 am 03:53 Cloudy 53 11.7 34 1.1 48 48 WSW 5 7 29.90 1013 10 16 N/A
4:53 am 04:53 Cloudy 52 11.1 33 0.6 49 49 W 7 11 29.92 1013 10 16 N/A
5:53 am 05:53 Clear 48 8.9 33 0.6 56 56 W 5 7 29.93 1013 10 16 N/A
6:53 am 06:53 Clear 40 4.4 34 1.1 79 79 N N/A 29.93 1014 10 16 N/A
7:53 am 07:53 Sunny 39 3.9 33 0.6 79 79 N N/A 29.93 1014 10 16 N/A
8:53 am 08:53 Sunny 50 10 35 1.7 57 57 SW 6 9 29.95 1014 10 16 N/A
9:53 am 09:53 Sunny 53 11.7 35 1.7 51 51 W 12 19 29.97 1015 10 16 N/A
10:53 am 10:53 Sunny 55 12.8 34 1.1 45 45 WSW 9 15 29.97 1015 10 16 N/A
11:53 am 11:53 Sunny 59 15 29 -1.7 32 32 W 16 26 29.96 1015 10 16 N/A
12:53 pm 12:53 Sunny 61 16.1 28 -2.2 29 29 WSW 13 20 29.95 1014 10 16 N/A
1:53 pm 13:53 Mostly Cloudy 60 15.6 27 -2.8 28 28 W 10 17 29.95 1014 10 16 N/A
2:53 pm 14:53 Partly Cloudy 62 16.7 26 -3.3 25 25 W 17 28 29.93 1014 10 16 N/A
3:53 pm 15:53 Sunny 62 16.7 24 -4.4 23 23 WNW 16 26 29.92 1013 10 16 N/A
4:53 pm 16:53 Mostly Cloudy 61 16.1 25 -3.9 25 25 W 14 22 29.91 1013 10 16 N/A
5:53 pm 17:53 Mostly Sunny 62 16.7 23 -5 22 22 W 16 26 29.91 1013 10 16 N/A
6:53 pm 18:53 Mostly Sunny 59 15 24 -4.4 26 26 WNW 18 30 29.94 1014 10 16 N/A
7:53 pm 19:53 Clear 56 13.3 23 -5 28 28 WNW 6 9 29.95 1014 10 16 N/A
8:53 pm 20:53 Clear 51 10.6 28 -2.2 41 41 WNW 3 6 29.97 1015 10 16 N/A
9:53 pm 21:53 Clear 44 6.7 32 undefined 63 63 N N/A 29.99 1016 10 16 N/A
10:53 pm 22:53 Clear 41 5 32 undefined 70 70 N N/A 30.00 1016 10 16 N/A
11:53 pm 23:53 Clear 42 5.6 30 -1.1 62 62 N N/A 29.99 1016 10 16 N/A

Powered by AerisWeather